Time,TemperatureF,DewpointF,PressureIn,WindDirection,WindDirectionDegrees,WindSpeedMPH,WindSpeedGustMPH,Humidity,HourlyPrecipIn,Conditions,Clouds,dailyrainin,SoftwareType,DateUTC
2013-05-17 00:03:00,67.0,58.0,29.74,SSW,194,0.0,3.0,72,0.00,,,0.00,,2013-05-17 05:03:00,
2013-05-17 00:14:00,67.0,58.0,29.74,SSW,194,0.0,3.0,72,0.00,,,0.00,,2013-05-17 05:14:00,
2013-05-17 00:22:00,66.0,57.0,29.75,SSW,194,0.0,1.0,73,0.00,,,0.00,,2013-05-17 05:22:00,
2013-05-17 00:32:00,66.0,57.0,29.73,South,188,1.0,5.0,74,0.00,,,0.00,,2013-05-17 05:32:00,
2013-05-17 00:42:00,66.0,57.0,29.73,South,188,1.0,5.0,74,0.00,,,0.00,,2013-05-17 05:42:00,
2013-05-17 00:52:00,66.0,57.0,29.73,SE,133,1.0,4.0,74,0.00,,,0.00,,2013-05-17 05:52:00,
2013-05-17 01:02:00,65.0,57.0,29.72,SSE,161,1.0,4.0,75,0.00,,,0.00,,2013-05-17 06:02:00,
2013-05-17 01:11:00,65.0,57.0,29.72,SSE,161,1.0,4.0,75,0.00,,,0.00,,2013-05-17 06:11:00,
2013-05-17 01:21:00,65.0,57.0,29.72,South,184,2.0,7.0,76,0.00,,,0.00,,2013-05-17 06:21:00,
2013-05-17 01:32:00,64.0,57.0,29.72,South,180,1.0,6.0,77,0.00,,,0.00,,2013-05-17 06:32:00,
2013-05-17 01:42:00,64.0,57.0,29.72,South,180,1.0,6.0,77,0.00,,,0.00,,2013-05-17 06:42:00,
2013-05-17 01:52:00,64.0,57.0,29.72,SE,144,1.0,7.0,78,0.00,,,0.00,,2013-05-17 06:52:00,
2013-05-17 02:02:00,63.0,57.0,29.72,South,184,0.0,5.0,80,0.00,,,0.00,,2013-05-17 07:02:00,
2013-05-17 02:11:00,63.0,57.0,29.72,South,184,0.0,5.0,80,0.00,,,0.00,,2013-05-17 07:11:00,
2013-05-17 02:21:00,64.0,58.0,29.73,South,182,0.0,5.0,80,0.00,,,0.00,,2013-05-17 07:21:00,
2013-05-17 02:32:00,64.0,58.0,29.74,South,181,0.0,6.0,80,0.00,,,0.00,,2013-05-17 07:32:00,
2013-05-17 02:43:00,64.0,58.0,29.74,South,181,0.0,6.0,80,0.00,,,0.00,,2013-05-17 07:43:00,
2013-05-17 02:53:00,63.0,57.0,29.74,South,178,0.0,3.0,80,0.00,,,0.00,,2013-05-17 07:53:00,
2013-05-17 03:02:00,63.0,57.0,29.75,South,187,0.0,3.0,81,0.00,,,0.00,,2013-05-17 08:02:00,
2013-05-17 03:12:00,63.0,57.0,29.75,South,187,0.0,3.0,81,0.00,,,0.00,,2013-05-17 08:12:00,
2013-05-17 03:23:00,62.0,56.0,29.74,South,189,0.0,1.0,82,0.00,,,0.00,,2013-05-17 08:23:00,
2013-05-17 03:33:00,62.0,57.0,29.73,South,188,0.0,2.0,83,0.00,,,0.00,,2013-05-17 08:33:00,
2013-05-17 03:42:00,62.0,57.0,29.73,South,188,0.0,2.0,83,0.00,,,0.00,,2013-05-17 08:42:00,
2013-05-17 03:51:00,62.0,57.0,29.73,SSE,154,0.0,5.0,84,0.00,,,0.00,,2013-05-17 08:51:00,
2013-05-17 04:02:00,62.0,57.0,29.73,South,180,1.0,6.0,84,0.00,,,0.00,,2013-05-17 09:02:00,
2013-05-17 04:12:00,62.0,57.0,29.73,South,180,1.0,6.0,84,0.00,,,0.00,,2013-05-17 09:12:00,
2013-05-17 04:22:00,62.0,57.0,29.74,South,186,0.0,4.0,84,0.00,,,0.00,,2013-05-17 09:22:00,
2013-05-17 04:33:00,62.0,57.0,29.75,SSW,207,0.0,1.0,84,0.00,,,0.00,,2013-05-17 09:33:00,
2013-05-17 04:42:00,62.0,57.0,29.75,SSW,207,0.0,1.0,84,0.00,,,0.00,,2013-05-17 09:42:00,
2013-05-17 04:53:00,61.0,56.0,29.75,SSW,193,0.0,2.0,84,0.00,,,0.00,,2013-05-17 09:53:00,
2013-05-17 05:03:00,61.0,56.0,29.76,South,189,0.0,4.0,85,0.00,,,0.00,,2013-05-17 10:03:00,
2013-05-17 05:12:00,61.0,56.0,29.76,South,189,0.0,4.0,85,0.00,,,0.00,,2013-05-17 10:12:00,
2013-05-17 05:23:00,61.0,56.0,29.77,South,178,1.0,4.0,85,0.00,,,0.00,,2013-05-17 10:23:00,
2013-05-17 05:33:00,61.0,57.0,29.77,South,188,1.0,5.0,86,0.00,,,0.00,,2013-05-17 10:33:00,
2013-05-17 05:42:00,61.0,57.0,29.77,South,188,1.0,5.0,86,0.00,,,0.00,,2013-05-17 10:42:00,
2013-05-17 05:53:00,60.0,56.0,29.77,South,179,0.0,6.0,86,0.00,,,0.00,,2013-05-17 10:53:00,
2013-05-17 06:02:00,60.0,56.0,29.78,SW,223,0.0,2.0,87,0.00,,,0.00,,2013-05-17 11:02:00,
2013-05-17 06:12:00,60.0,56.0,29.78,SW,223,0.0,2.0,87,0.00,,,0.00,,2013-05-17 11:12:00,
2013-05-17 06:23:00,59.0,55.0,29.78,South,182,0.0,3.0,88,0.00,,,0.00,,2013-05-17 11:23:00,
2013-05-17 06:34:00,59.0,56.0,29.77,South,181,0.0,5.0,89,0.00,,,0.00,,2013-05-17 11:34:00,
2013-05-17 06:42:00,59.0,56.0,29.77,South,181,0.0,5.0,89,0.00,,,0.00,,2013-05-17 11:42:00,
2013-05-17 06:53:00,59.0,55.0,29.78,South,170,1.0,5.0,88,0.00,,,0.00,,2013-05-17 11:53:00,
2013-05-17 07:03:00,59.0,56.0,29.78,South,190,0.0,6.0,89,0.00,,,0.00,,2013-05-17 12:03:00,
2013-05-17 07:12:00,59.0,56.0,29.78,South,190,0.0,6.0,89,0.00,,,0.00,,2013-05-17 12:12:00,
2013-05-17 07:23:00,59.0,56.0,29.78,South,175,0.0,5.0,89,0.00,,,0.00,,2013-05-17 12:23:00,
2013-05-17 07:32:00,59.0,56.0,29.79,South,184,1.0,3.0,89,0.00,,,0.00,,2013-05-17 12:32:00,
2013-05-17 07:43:00,59.0,56.0,29.79,South,184,1.0,3.0,89,0.00,,,0.00,,2013-05-17 12:43:00,
2013-05-17 07:53:00,59.0,56.0,29.79,South,185,0.0,3.0,89,0.00,,,0.00,,2013-05-17 12:53:00,
2013-05-17 08:03:00,60.0,57.0,29.79,South,180,0.0,4.0,89,0.00,,,0.00,,2013-05-17 13:03:00,
2013-05-17 08:12:00,60.0,57.0,29.79,South,180,0.0,4.0,89,0.00,,,0.00,,2013-05-17 13:12:00,
2013-05-17 08:23:00,63.0,58.0,29.80,SW,223,0.0,3.0,85,0.00,,,0.00,,2013-05-17 13:23:00,
2013-05-17 08:33:00,65.0,59.0,29.80,SSW,192,0.0,4.0,81,0.00,,,0.00,,2013-05-17 13:33:00,
2013-05-17 08:42:00,65.0,59.0,29.80,SSW,192,0.0,4.0,81,0.00,,,0.00,,2013-05-17 13:42:00,
2013-05-17 08:52:00,67.0,60.0,29.80,South,183,0.0,3.0,78,0.00,,,0.00,,2013-05-17 13:52:00,
2013-05-17 09:02:00,69.0,60.0,29.80,South,181,1.0,5.0,74,0.00,,,0.00,,2013-05-17 14:02:00,
2013-05-17 09:13:00,69.0,60.0,29.80,South,181,1.0,5.0,74,0.00,,,0.00,,2013-05-17 14:13:00,
2013-05-17 09:22:00,70.0,61.0,29.80,SSE,157,1.0,6.0,73,0.00,,,0.00,,2013-05-17 14:22:00,
2013-05-17 09:34:00,71.0,60.0,29.80,South,175,1.0,6.0,69,0.00,,,0.00,,2013-05-17 14:34:00,
2013-05-17 09:43:00,71.0,60.0,29.80,South,175,1.0,6.0,69,0.00,,,0.00,,2013-05-17 14:43:00,
2013-05-17 09:53:00,73.0,61.0,29.80,South,180,0.0,5.0,66,0.00,,,0.00,,2013-05-17 14:53:00,
2013-05-17 10:03:00,74.0,61.0,29.80,South,184,2.0,6.0,63,0.00,,,0.00,,2013-05-17 15:03:00,
2013-05-17 10:14:00,74.0,61.0,29.80,South,184,2.0,6.0,63,0.00,,,0.00,,2013-05-17 15:14:00,
2013-05-17 10:25:00,75.0,60.0,29.80,South,189,1.0,6.0,59,0.00,,,0.00,,2013-05-17 15:25:00,
2013-05-17 10:37:00,76.0,60.0,29.80,South,181,2.0,7.0,58,0.00,,,0.00,,2013-05-17 15:37:00,
2013-05-17 10:47:00,76.0,60.0,29.80,South,181,2.0,7.0,58,0.00,,,0.00,,2013-05-17 15:47:00,
2013-05-17 10:56:00,76.0,59.0,29.80,SW,232,1.0,7.0,55,0.00,,,0.00,,2013-05-17 15:56:00,
2013-05-17 11:07:00,77.0,60.0,29.80,SSW,192,2.0,10.0,55,0.00,,,0.00,,2013-05-17 16:07:00,
2013-05-17 11:13:00,77.0,60.0,29.80,SSW,192,2.0,10.0,55,0.00,,,0.00,,2013-05-17 16:13:00,
2013-05-17 11:26:00,78.0,59.0,29.80,SE,130,1.0,9.0,53,0.00,,,0.00,,2013-05-17 16:26:00,
2013-05-17 11:37:00,78.0,58.0,29.80,SSW,194,1.0,8.0,51,0.00,,,0.00,,2013-05-17 16:37:00,
2013-05-17 11:49:00,78.0,58.0,29.80,SSW,194,1.0,8.0,51,0.00,,,0.00,,2013-05-17 16:49:00,
2013-05-17 11:56:00,79.0,58.0,29.80,South,169,1.0,7.0,49,0.00,,,0.00,,2013-05-17 16:56:00,
2013-05-17 12:08:00,80.0,58.0,29.80,South,180,1.0,9.0,47,0.00,,,0.00,,2013-05-17 17:08:00,
2013-05-17 12:18:00,80.0,58.0,29.80,South,180,1.0,9.0,47,0.00,,,0.00,,2013-05-17 17:18:00,
2013-05-17 12:30:00,81.0,58.0,29.79,West,272,3.0,9.0,46,0.00,,,0.00,,2013-05-17 17:30:00,
2013-05-17 12:40:00,81.0,-99.9,29.79,ESE,120,2.0,7.0,46,0.00,,,0.00,,2013-05-17 17:40:00,
2013-05-17 12:49:00,81.0,58.0,29.79,ESE,120,2.0,7.0,46,0.00,,,0.00,,2013-05-17 17:49:00,
2013-05-17 13:00:00,82.0,59.0,29.78,South,181,0.0,11.0,45,0.00,,,0.00,,2013-05-17 18:00:00,
2013-05-17 13:09:00,82.0,57.0,29.78,South,186,3.0,8.0,43,0.00,,,0.00,,2013-05-17 18:09:00,
2013-05-17 13:20:00,82.0,57.0,29.78,South,186,3.0,8.0,43,0.00,,,0.00,,2013-05-17 18:20:00,
2013-05-17 13:30:00,82.0,58.0,29.78,South,186,0.0,11.0,44,0.00,,,0.00,,2013-05-17 18:30:00,
2013-05-17 13:40:00,83.0,-99.9,29.77,SSE,158,2.0,10.0,39,0.00,,,0.00,,2013-05-17 18:40:00,
2013-05-17 13:50:00,-999.0,-99.9,29.77,SSE,158,2.0,10.0,39,0.00,,,0.00,,2013-05-17 18:50:00,
2013-05-17 14:00:00,84.0,57.0,29.77,South,172,2.0,9.0,40,0.00,,,0.00,,2013-05-17 19:00:00,
2013-05-17 14:10:00,84.0,57.0,29.77,South,175,3.0,9.0,40,0.00,,,0.00,,2013-05-17 19:10:00,
2013-05-17 14:20:00,84.0,57.0,29.77,South,175,3.0,9.0,40,0.00,,,0.00,,2013-05-17 19:20:00,
2013-05-17 14:30:00,84.0,57.0,29.77,South,175,3.0,9.0,40,0.00,,,0.00,,2013-05-17 19:30:00,
2013-05-17 14:40:00,85.0,57.0,29.76,South,184,2.0,6.0,39,0.00,,,0.00,,2013-05-17 19:40:00,
2013-05-17 14:50:00,85.0,57.0,29.76,South,184,2.0,6.0,39,0.00,,,0.00,,2013-05-17 19:50:00,
2013-05-17 15:01:00,-999.0,-99.9,29.76,SE,145,1.0,7.0,38,0.00,,,0.00,,2013-05-17 20:01:00,
2013-05-17 15:09:00,86.0,57.0,29.75,South,169,2.0,5.0,38,0.00,,,0.00,,2013-05-17 20:09:00,
2013-05-17 15:20:00,86.0,57.0,29.75,South,169,2.0,5.0,38,0.00,,,0.00,,2013-05-17 20:20:00,
2013-05-17 15:30:00,86.0,56.0,29.75,South,184,1.0,5.0,36,0.00,,,0.00,,2013-05-17 20:30:00,
2013-05-17 15:40:00,86.0,57.0,29.75,ENE,64,3.0,8.0,38,0.00,,,0.00,,2013-05-17 20:40:00,
2013-05-17 15:50:00,86.0,57.0,29.75,ENE,64,3.0,8.0,38,0.00,,,0.00,,2013-05-17 20:50:00,
2013-05-17 15:58:00,87.0,57.0,29.74,SSW,192,2.0,8.0,36,0.00,,,0.00,,2013-05-17 20:58:00,
2013-05-17 16:07:00,87.0,58.0,29.74,SE,126,4.0,10.0,37,0.00,,,0.00,,2013-05-17 21:07:00,
2013-05-17 16:17:00,87.0,58.0,29.74,SE,126,4.0,10.0,37,0.00,,,0.00,,2013-05-17 21:17:00,
2013-05-17 16:26:00,87.0,58.0,29.74,South,183,3.0,10.0,37,0.00,,,0.00,,2013-05-17 21:26:00,
2013-05-17 16:39:00,87.0,57.0,29.73,South,173,2.0,9.0,36,0.00,,,0.00,,2013-05-17 21:39:00,
2013-05-17 16:49:00,87.0,57.0,29.73,South,173,2.0,9.0,36,0.00,,,0.00,,2013-05-17 21:49:00,
2013-05-17 16:57:00,87.0,57.0,29.73,SSE,154,3.0,8.0,36,0.00,,,0.00,,2013-05-17 21:57:00,
2013-05-17 17:07:00,87.0,58.0,29.73,SSE,163,3.0,9.0,37,0.00,,,0.00,,2013-05-17 22:07:00,
2013-05-17 17:17:00,87.0,58.0,29.73,SSE,163,3.0,9.0,37,0.00,,,0.00,,2013-05-17 22:17:00,
2013-05-17 17:28:00,87.0,58.0,29.72,SE,138,2.0,8.0,37,0.00,,,0.00,,2013-05-17 22:28:00,
2013-05-17 17:38:00,87.0,58.0,29.72,South,175,5.0,10.0,37,0.00,,,0.00,,2013-05-17 22:38:00,
2013-05-17 17:47:00,87.0,58.0,29.72,South,175,5.0,10.0,37,0.00,,,0.00,,2013-05-17 22:47:00,
2013-05-17 17:54:00,87.0,58.0,29.72,SW,219,3.0,11.0,38,0.00,,,0.00,,2013-05-17 22:54:00,
2013-05-17 18:04:00,86.0,57.0,29.72,South,184,4.0,11.0,38,0.00,,,0.00,,2013-05-17 23:04:00,
2013-05-17 18:13:00,86.0,57.0,29.72,South,184,4.0,11.0,38,0.00,,,0.00,,2013-05-17 23:13:00,
2013-05-17 18:23:00,86.0,58.0,29.72,South,182,4.0,9.0,39,0.00,,,0.00,,2013-05-17 23:23:00,
2013-05-17 18:37:00,86.0,58.0,29.72,South,169,3.0,8.0,39,0.00,,,0.00,,2013-05-17 23:37:00,
2013-05-17 18:47:00,86.0,58.0,29.72,South,169,3.0,8.0,39,0.00,,,0.00,,2013-05-17 23:47:00,
2013-05-17 18:54:00,85.0,58.0,29.72,South,180,2.0,10.0,40,0.00,,,0.00,,2013-05-17 23:54:00,
2013-05-17 19:02:00,85.0,58.0,29.71,South,190,2.0,10.0,40,0.00,,,0.00,,2013-05-18 00:02:00,
2013-05-17 19:14:00,85.0,58.0,29.71,South,190,2.0,10.0,40,0.00,,,0.00,,2013-05-18 00:14:00,
2013-05-17 19:22:00,84.0,57.0,29.71,South,173,4.0,10.0,40,0.00,,,0.00,,2013-05-18 00:22:00,
2013-05-17 19:33:00,84.0,58.0,29.71,SSW,198,4.0,11.0,42,0.00,,,0.00,,2013-05-18 00:33:00,
2013-05-17 19:44:00,84.0,58.0,29.71,SSW,198,4.0,11.0,42,0.00,,,0.00,,2013-05-18 00:44:00,
2013-05-17 19:54:00,83.0,58.0,29.71,South,178,3.0,10.0,43,0.00,,,0.00,,2013-05-18 00:54:00,
2013-05-17 20:03:00,82.0,59.0,29.71,SSW,212,3.0,9.0,45,0.00,,,0.00,,2013-05-18 01:03:00,
2013-05-17 20:13:00,82.0,59.0,29.71,SSW,212,3.0,9.0,45,0.00,,,0.00,,2013-05-18 01:13:00,
2013-05-17 20:24:00,81.0,59.0,29.71,SSE,150,2.0,12.0,47,0.00,,,0.00,,2013-05-18 01:24:00,
2013-05-17 20:32:00,80.0,59.0,29.72,SSW,205,2.0,10.0,48,0.00,,,0.00,,2013-05-18 01:32:00,
2013-05-17 20:42:00,80.0,59.0,29.72,SSW,205,2.0,10.0,48,0.00,,,0.00,,2013-05-18 01:42:00,
2013-05-17 20:52:00,79.0,59.0,29.72,South,171,3.0,9.0,50,0.00,,,0.00,,2013-05-18 01:52:00,
2013-05-17 21:02:00,78.0,59.0,29.73,South,175,2.0,8.0,52,0.00,,,0.00,,2013-05-18 02:02:00,
2013-05-17 21:12:00,78.0,59.0,29.73,South,175,2.0,8.0,52,0.00,,,0.00,,2013-05-18 02:12:00,
2013-05-17 21:22:00,77.0,59.0,29.74,South,172,1.0,6.0,54,0.00,,,0.00,,2013-05-18 02:22:00,
2013-05-17 21:31:00,76.0,59.0,29.75,SSE,165,0.0,5.0,55,0.00,,,0.00,,2013-05-18 02:31:00,
2013-05-17 21:42:00,76.0,59.0,29.75,SSE,165,0.0,5.0,55,0.00,,,0.00,,2013-05-18 02:42:00,
2013-05-17 21:53:00,75.0,59.0,29.75,SE,144,0.0,4.0,57,0.00,,,0.00,,2013-05-18 02:53:00,
2013-05-17 22:02:00,74.0,59.0,29.76,SSE,152,0.0,3.0,59,0.00,,,0.00,,2013-05-18 03:02:00,
2013-05-17 22:12:00,74.0,59.0,29.76,SSE,152,0.0,3.0,59,0.00,,,0.00,,2013-05-18 03:12:00,
2013-05-17 22:22:00,73.0,59.0,29.76,SE,136,0.0,4.0,61,0.00,,,0.00,,2013-05-18 03:22:00,
2013-05-17 22:33:00,73.0,60.0,29.77,South,180,0.0,3.0,63,0.00,,,0.00,,2013-05-18 03:33:00,
2013-05-17 22:43:00,73.0,60.0,29.77,South,180,0.0,3.0,63,0.00,,,0.00,,2013-05-18 03:43:00,
2013-05-17 22:53:00,72.0,59.0,29.78,South,175,0.0,2.0,63,0.00,,,0.00,,2013-05-18 03:53:00,
2013-05-17 23:03:00,71.0,59.0,29.78,South,173,0.0,3.0,65,0.00,,,0.00,,2013-05-18 04:03:00,
2013-05-17 23:12:00,71.0,59.0,29.78,South,173,0.0,3.0,65,0.00,,,0.00,,2013-05-18 04:12:00,
2013-05-17 23:23:00,70.0,59.0,29.78,SSE,166,1.0,4.0,67,0.00,,,0.00,,2013-05-18 04:23:00,
2013-05-17 23:33:00,70.0,59.0,29.78,South,175,1.0,4.0,68,0.00,,,0.00,,2013-05-18 04:33:00,
2013-05-17 23:42:00,70.0,59.0,29.78,South,175,1.0,4.0,68,0.00,,,0.00,,2013-05-18 04:42:00,
2013-05-17 23:52:00,69.0,59.0,29.77,South,172,0.0,5.0,70,0.00,,,0.00,,2013-05-18 04:52:00,